Regional Weather Roundup
Issued by NWS

Home | Current Version | Previous Version | Graphics & Text | Print | Product List | Glossary On
Versions: 1 2 3 4 5 6 7 8 9 10 11 12 13 14 15 16 17 18 19 20 21 22 23 24 25 26 27 28 29 30 31 32 33 34 35 36 37 38 39 40 41 42 43 44 45 46 47 48 49 50
000
ASUS43 KFSD 011802
RWRSD

WEATHER ROUNDUP FOR SOUTH DAKOTA
NATIONAL WEATHER SERVICE SIOUX FALLS SD
1200 PM CST WED MAR 01 2017

NOTE: "FAIR" INDICATES FEW OR NO CLOUDS BELOW 12,000 FEET WITH NO
SIGNIFICANT WEATHER AND/OR OBSTRUCTIONS TO VISIBILITY.


SDZ001>005-009-010-012>017-011900-
NORTHWEST AND NORTH CENTRAL SOUTH DAKOTA

CITY           SKY/WX    TMP DP  RH WIND       PRES   REMARKS
BUFFALO          N/A     28  18  66 W14       30.01S WCI  17
FAITH            N/A     27  20  75 W13       30.10S WCI  16
MOBRIDGE       CLOUDY    28  18  66 NW14G24   30.09R WCI  17
$$

SDZ012>016-024>037-041>051-057-063-072>074-011900-
SOUTHWEST AND SOUTH CENTRAL SOUTH DAKOTA

CITY           SKY/WX    TMP DP  RH WIND       PRES   REMARKS
RAPID CTY ARPT MOSUNNY   36  10  34 NW13      30.10S
PIERRE         CLOUDY    29  20  69 NW17      30.13R WCI  17
CUSTER         SUNNY     26   7  44 W15G31    30.01S WCI  14
ELLSWORTH AFB  SUNNY     36  10  34 NW15      30.08S
PHILIP         SUNNY     32  23  69 NW14G22   30.15S WCI  22
PINE RIDGE     SUNNY     31  19  61 W17       30.14S WCI  19
SPEARFISH      FAIR      32   9  37 W21G31    30.05F WCI  20
WINNER         CLOUDY    34  22  61 NW25      30.14R WCI  21
$$

SDZ004>011-016>023-039-040-011900-
NORTHEAST SOUTH DAKOTA

CITY           SKY/WX    TMP DP  RH WIND       PRES   REMARKS
ABERDEEN       PTSUNNY   27  19  72 NW18      30.08R WCI  14
WATERTOWN      PTSUNNY   28  19  69 NW17      30.00R WCI  16
BROOKINGS      CLOUDY    30  24  78 NW17      30.00R WCI  18
SISSETON         N/A     25  19  78 N18       30.03R WCI  11
$$

SDZ017-020-022-023-036>040-048>070-011900-
SOUTHEAST SOUTH DAKOTA

CITY           SKY/WX    TMP DP  RH WIND       PRES   REMARKS
SIOUX FALLS    PTSUNNY   30  23  75 NW15G25   30.05R WCI  19
HURON          CLOUDY    27  22  81 N14       30.09R WCI  16
CHAMBERLAIN    CLOUDY    34  27  75 W22G28    30.13R WCI  22
MITCHELL       CLOUDY    30  26  85 NW16      30.10R WCI  19
YANKTON        CLOUDY    30  25  80 W16G26    30.09R VSB 1/2 WCI  19
$$

ABBREVIATIONS USED IN REMARKS
   TC - TEMPERATURE IN CELSIUS
  WCI - WIND CHILL INDEX
   HX - HEAT INDEX
  VSB - VISIBILITY




USA.gov is the U.S. government's official web portal to all federal, state and local government web resources and services.